EW0122 Weather Reports


Display with metric or nautical units.
time (UTC)temp
F
wind
direction
speed
MPH
gust
MPH
rain 1hr
in
rain 24hr
in
rain mn
in
humidity
%
barometer
mb
20260504081531 46 120 0.0 4.0 0.00 0.00 0.00 64 1009.5
20260504081011 46 146 0.0 4.0 0.00 0.00 0.00 64 1009.6
20260504080512 46 160 1.0 4.0 0.00 0.00 0.00 64 1009.5
20260504050511 47 0 0.0 1.0 0.00 0.00 0.00 62 1010.1
20260504045513 47 0 0.0 1.0 0.00 0.00 0.00 61 1010.3
20260504045011 47 0 0.0 1.0 0.00 0.00 0.00 61 1010.3
20260504044528 47 0 0.0 1.0 0.00 0.00 0.00 61 1010.3
20260504044013 47 0 0.0 1.0 0.00 0.00 0.00 61 1010.6
20260504043515 47 0 0.0 1.0 0.00 0.00 0.00 60 1010.7
20260504043028 47 0 0.0 1.0 0.00 0.00 0.00 60 1010.9
20260504042513 47 0 0.0 0.0 0.00 0.00 0.00 59 1010.8
20260504042011 47 0 0.0 0.0 0.00 0.00 0.00 59 1010.8
20260504041540 47 0 0.0 0.0 0.00 0.00 0.00 60 1010.8
20260504041012 47 0 0.0 0.0 0.00 0.00 0.00 58 1010.8
20260504040512 47 0 0.0 0.0 0.00 0.00 0.00 58 1010.7
20260504040039 47 0 0.0 0.0 0.00 0.00 0.00 59 1010.7
20260504035513 47 0 0.0 0.0 0.00 0.00 0.00 58 1010.6
20260504035013 47 0 0.0 0.0 0.00 0.00 0.00 58 1010.6
20260504034529 47 0 0.0 0.0 0.00 0.00 0.00 57 1010.4
20260504034012 47 0 0.0 1.0 0.00 0.00 0.00 57 1010.3
20260504033513 47 0 0.0 1.0 0.00 0.00 0.00 57 1010.4
20260504033030 47 0 0.0 1.0 0.00 0.00 0.00 56 1010.3
20260504032515 47 0 0.0 1.0 0.00 0.00 0.00 56 1010.3
20260504032013 47 0 0.0 1.0 0.00 0.00 0.00 57 1010.3
20260504031528 46 0 0.0 1.0 0.00 0.00 0.00 57 1010.3
20260504031013 46 0 0.0 1.0 0.00 0.00 0.00 57 1010.3
20260504030513 46 0 0.0 0.0 0.00 0.00 0.00 57 1010.2
20260504030035 46 0 0.0 0.0 0.00 0.00 0.00 56 1010.3
20260504025511 46 0 0.0 0.0 0.00 0.00 0.00 56 1010.2
20260504025012 45 0 0.0 0.0 0.00 0.00 0.00 56 1010.2
20260504024531 46 0 0.0 0.0 0.00 0.00 0.00 55 1010.2
20260504024013 46 0 0.0 0.0 0.00 0.00 0.00 54 1010.1
20260504023514 46 0 0.0 0.0 0.00 0.00 0.00 54 1010.2
20260504023031 46 0 0.0 0.0 0.00 0.00 0.00 54 1010.2
20260504022513 46 0 0.0 0.0 0.00 0.00 0.00 53 1010.2
20260504022013 47 0 0.0 0.0 0.00 0.00 0.00 52 1010.2
20260504021528 47 0 0.0 0.0 0.00 0.00 0.00 51 1010.2
20260504021012 47 0 0.0 0.0 0.00 0.00 0.00 50 1010.3
20260504020514 47 0 0.0 0.0 0.00 0.00 0.00 50 1010.4
20260504020036 47 0 0.0 0.0 0.00 0.00 0.00 50 1010.2
20260504015513 47 0 0.0 0.0 0.00 0.00 0.00 50 1010.2
20260504015013 48 0 0.0 0.0 0.00 0.00 0.00 49 1010.2
20260504014535 48 0 0.0 0.0 0.00 0.00 0.00 49 1010.2
20260504014013 48 0 0.0 0.0 0.00 0.00 0.00 49 1010.1
20260504013514 48 0 0.0 0.0 0.00 0.00 0.00 48 1010.2
20260504013042 49 0 0.0 1.0 0.00 0.00 0.00 48 1010.1
20260504012512 49 0 0.0 1.0 0.00 0.00 0.00 46 1010.1
20260504012014 49 0 0.0 1.0 0.00 0.00 0.00 46 1010.0
20260504011528 49 0 0.0 1.0 0.00 0.00 0.00 47 1010.0
20260504011012 50 0 0.0 1.0 0.00 0.00 0.00 45 1010.0
20260504010516 50 0 0.0 1.0 0.00 0.00 0.00 45 1010.0
20260504010030 50 0 0.0 2.0 0.00 0.00 0.00 44 1009.9
20260504005512 51 0 0.0 5.0 0.00 0.00 0.00 43 1009.9
20260504005012 51 0 0.0 5.0 0.00 0.00 0.00 43 1009.9
20260504004528 51 238 1.0 6.0 0.00 0.00 0.00 42 1009.9
20260504004013 51 248 1.0 6.0 0.00 0.00 0.00 42 1009.7
20260504003513 51 242 0.0 3.0 0.00 0.00 0.00 42 1009.8
20260504003032 51 0 0.0 3.0 0.00 0.00 0.00 41 1009.9
20260504002513 52 238 0.0 4.0 0.00 0.00 0.00 41 1009.7
20260504002012 52 259 1.0 9.0 0.00 0.00 0.00 41 1009.6
20260504001535 52 248 3.0 9.0 0.00 0.00 0.00 40 1009.6
20260504001012 52 245 2.0 6.0 0.00 0.00 0.00 40 1009.6
20260504000513 52 225 2.0 6.0 0.00 0.00 0.00 39 1009.5
20260504000029 52 245 2.0 11.0 0.00 0.00 0.00 39 1009.5
20260503235511 53 301 2.0 11.0 0.00 0.00 0.00 39 1009.4
20260503235014 53 290 4.0 11.0 0.00 0.00 0.00 38 1009.3
20260503234529 53 281 3.0 12.0 0.00 0.00 0.00 37 1009.3
20260503234014 53 316 4.0 13.0 0.00 0.00 0.00 37 1009.2
20260503233513 53 249 6.0 13.0 0.00 0.00 0.00 36 1009.1
20260503233030 53 280 4.0 13.0 0.00 0.00 0.00 36 1009.1
20260503232517 54 249 4.0 12.0 0.00 0.00 0.00 35 1009.0
20260503232011 54 281 3.0 12.0 0.00 0.00 0.00 34 1008.9
20260503231528 54 229 2.0 8.0 0.00 0.00 0.00 34 1008.8
20260503231013 54 243 1.0 8.0 0.00 0.00 0.00 34 1008.7
20260503230514 55 270 3.0 12.0 0.00 0.00 0.00 33 1008.8
20260503230037 55 238 4.0 15.0 0.00 0.00 0.00 32 1008.6
20260503225512 55 277 4.0 15.0 0.00 0.00 0.00 31 1008.5
20260503225013 55 247 2.0 10.0 0.00 0.00 0.00 32 1008.3
20260503224530 56 314 4.0 11.0 0.00 0.00 0.00 31 1008.3
20260503224016 56 297 3.0 12.0 0.00 0.00 0.00 31 1008.4
20260503223516 56 248 4.0 12.0 0.00 0.00 0.00 31 1008.7
20260503223028 56 236 5.0 12.0 0.00 0.00 0.00 30 1008.5
20260503222512 56 194 3.0 10.0 0.00 0.00 0.00 29 1008.3
20260503222012 56 322 3.0 10.0 0.00 0.00 0.00 29 1008.3
20260503221530 56 250 3.0 12.0 0.00 0.00 0.00 29 1008.5
20260503221011 56 255 4.0 12.0 0.00 0.00 0.00 28 1008.5
20260503220513 56 242 5.0 15.0 0.00 0.00 0.00 29 1008.6
20260503220030 56 243 5.0 15.0 0.00 0.00 0.00 29 1008.5
20260503215514 55 312 4.0 14.0 0.00 0.00 0.00 28 1008.5
20260503215013 55 290 5.0 14.0 0.00 0.00 0.00 27 1008.5
20260503214539 55 286 6.0 14.0 0.00 0.00 0.00 27 1008.6
20260503214013 55 319 4.0 18.0 0.00 0.00 0.00 28 1008.5
20260503213514 55 323 3.0 18.0 0.00 0.00 0.00 28 1008.4
20260503213031 55 307 5.0 18.0 0.00 0.00 0.00 28 1008.3
20260503212513 55 315 5.0 18.0 0.00 0.00 0.00 28 1008.4
20260503212015 55 330 6.0 18.0 0.00 0.00 0.00 28 1008.2
20260503211532 55 239 5.0 16.0 0.00 0.00 0.00 28 1008.3
20260503211018 55 259 5.0 16.0 0.00 0.00 0.00 30 1008.5
20260503210510 55 304 5.0 13.0 0.00 0.00 0.00 31 1008.2
20260503210028 55 256 5.0 12.0 0.00 0.00 0.00 30 1008.2
20260503205513 55 260 3.0 15.0 0.00 0.00 0.00 31 1008.3
20260503205013 54 271 5.0 15.0 0.00 0.00 0.00 31 1008.5
20260503204529 55 273 3.0 10.0 0.00 0.00 0.00 34 1008.4
20260503204013 54 224 2.0 14.0 0.00 0.00 0.00 33 1008.5
20260503203516 54 307 5.0 14.0 0.00 0.00 0.00 33 1008.7
20260503203035 54 307 3.0 11.0 0.00 0.00 0.00 33 1008.6
20260503202511 54 253 5.0 11.0 0.00 0.00 0.00 33 1008.7
20260503202015 54 254 3.0 11.0 0.00 0.00 0.00 34 1008.7
20260503201530 54 205 5.0 9.0 0.00 0.00 0.00 34 1008.8
20260503201013 53 281 3.0 9.0 0.00 0.00 0.00 35 1008.8
20260503200511 53 231 3.0 10.0 0.00 0.00 0.00 36 1009.1
20260503200029 53 280 4.0 10.0 0.00 0.00 0.00 35 1008.9
20260503195511 53 299 3.0 12.0 0.00 0.00 0.00 38 1009.1
20260503195017 53 297 2.0 12.0 0.00 0.00 0.00 37 1009.0
20260503194528 52 307 6.0 12.0 0.00 0.00 0.00 37 1009.1
20260503194018 53 302 3.0 10.0 0.00 0.00 0.00 37 1009.3
20260503193513 53 323 4.0 13.0 0.00 0.00 0.00 37 1009.3
20260503193042 53 256 5.0 13.0 0.00 0.00 0.00 36 1009.3
20260503192514 53 337 3.0 13.0 0.00 0.00 0.00 37 1009.4
20260503192011 53 281 5.0 13.0 0.00 0.00 0.00 37 1009.5
20260503191559 52 273 5.0 13.0 0.00 0.00 0.00 37 1009.4
20260503191010 52 68 4.0 15.0 0.00 0.00 0.00 37 1009.4
20260503190512 52 260 3.0 17.0 0.00 0.00 0.00 38 1009.5
20260503190035 52 235 7.0 17.0 0.00 0.00 0.00 37 1009.6
20260503185516 52 276 5.0 17.0 0.00 0.00 0.00 38 1009.7
20260503185013 52 282 4.0 13.0 0.00 0.00 0.00 39 1009.8
20260503184529 52 328 3.0 10.0 0.00 0.00 0.00 39 1009.8
20260503184011 52 259 4.0 11.0 0.00 0.00 0.00 39 1009.7
20260503183515 52 224 4.0 14.0 0.00 0.00 0.00 40 1009.9
20260503183029 51 307 3.0 15.0 0.00 0.00 0.00 41 1010.0
20260503182512 51 302 7.0 15.0 0.00 0.00 0.00 40 1010.0
20260503182014 51 328 5.0 16.0 0.00 0.00 0.00 40 1010.1
20260503181541 51 293 6.0 16.0 0.00 0.00 0.00 40 1010.1
20260503181014 52 315 4.0 11.0 0.00 0.00 0.00 41 1010.0
20260503180514 51 248 5.0 15.0 0.00 0.00 0.00 42 1010.1
20260503180030 50 321 2.0 15.0 0.00 0.00 0.00 43 1010.0
20260503175511 50 240 6.0 14.0 0.00 0.00 0.00 42 1010.2
20260503175016 50 262 4.0 13.0 0.00 0.00 0.00 43 1010.0
20260503174532 49 224 5.0 13.0 0.00 0.00 0.00 43 1010.2
20260503174016 49 308 5.0 11.0 0.00 0.00 0.00 44 1010.3
20260503173513 49 284 3.0 12.0 0.00 0.00 0.00 45 1010.2
20260503173051 49 272 6.0 12.0 0.00 0.00 0.00 44 1010.3
20260503172516 49 346 3.0 9.0 0.00 0.00 0.00 45 1010.3
20260503172501 49 310 4.0 9.0 0.00 0.00 0.00 44 1010.2
20260503171528 49 307 3.0 10.0 0.00 0.00 0.00 45 1010.3
20260503171013 49 306 3.0 13.0 0.00 0.00 0.00 43 1010.2
20260503170512 49 293 2.0 13.0 0.00 0.00 0.00 44 1010.2
20260503160118 50 295 6.0 15.0 0.00 0.00 0.00 46 1010.2
20260503150511 48 307 5.0 14.0 0.00 0.00 0.00 51 1010.4
20260503131014 44 308 3.0 12.0 0.00 0.00 0.00 63 1011.1
20260503130513 44 303 3.0 12.0 0.00 0.00 0.00 63 1011.1
20260503110523 40 291 1.0 3.0 0.00 0.00 0.00 74 1010.4
20260503090513 0 0.0 0.0 0.00 0.00 0.00 1010.2